TimeMST,TemperatureF,Dew PointF,Humidity,Sea Level PressureIn,VisibilityMPH,Wind Direction,Wind SpeedMPH,Gust SpeedMPH,PrecipitationIn,Events,Conditions,WindDirDegrees,DateUTC
12:15 AM,35.2,12.9,40,30.29,10.0,Calm,Calm,-,N/A,,Clear,0,2012-11-17 07:15:00
12:35 AM,33.4,12.9,43,30.29,10.0,North,3.5,-,N/A,,Clear,350,2012-11-17 07:35:00
12:55 AM,33.6,13.1,43,30.28,10.0,North,5.8,-,N/A,,Clear,360,2012-11-17 07:55:00
1:15 AM,34.2,13.3,42,30.28,10.0,North,5.8,-,N/A,,Clear,350,2012-11-17 08:15:00
1:35 AM,34.9,13.8,42,30.28,10.0,NW,4.6,-,N/A,,Clear,320,2012-11-17 08:35:00
1:55 AM,33.8,13.8,44,30.29,10.0,North,4.6,-,N/A,,Clear,350,2012-11-17 08:55:00
2:15 AM,33.4,13.8,45,30.29,10.0,North,5.8,-,N/A,,Clear,360,2012-11-17 09:15:00
2:35 AM,32.4,13.5,46,30.29,10.0,Calm,Calm,-,N/A,,Clear,0,2012-11-17 09:35:00
2:55 AM,32.5,13.6,46,30.29,10.0,Calm,Calm,-,N/A,,Clear,0,2012-11-17 09:55:00
3:15 AM,31.8,14.0,48,30.29,10.0,West,3.5,-,N/A,,Clear,270,2012-11-17 10:15:00
3:35 AM,29.7,13.8,52,30.29,10.0,North,4.6,-,N/A,,Clear,360,2012-11-17 10:35:00
3:55 AM,30.9,14.2,50,30.29,10.0,NNW,6.9,-,N/A,,Clear,340,2012-11-17 10:55:00
4:15 AM,32.0,14.5,49,30.29,10.0,Calm,Calm,-,N/A,,Clear,0,2012-11-17 11:15:00
4:35 AM,31.5,14.9,50,30.29,10.0,Calm,Calm,-,N/A,,Clear,0,2012-11-17 11:35:00
4:55 AM,31.3,15.4,52,30.28,10.0,Calm,Calm,-,N/A,,Clear,0,2012-11-17 11:55:00
5:15 AM,32.4,16.5,52,30.29,10.0,Calm,Calm,-,N/A,,Clear,0,2012-11-17 12:15:00
5:35 AM,30.6,15.1,53,30.29,10.0,Calm,Calm,-,N/A,,Clear,0,2012-11-17 12:35:00
5:55 AM,29.3,15.1,55,30.29,10.0,North,5.8,-,N/A,,Clear,350,2012-11-17 12:55:00
6:15 AM,30.2,14.9,53,30.29,10.0,Calm,Calm,-,N/A,,Clear,0,2012-11-17 13:15:00
6:35 AM,29.5,15.3,55,30.30,10.0,NNW,9.2,-,N/A,,Clear,340,2012-11-17 13:35:00
6:55 AM,31.8,15.8,52,30.31,10.0,North,6.9,-,N/A,,Clear,350,2012-11-17 13:55:00
7:15 AM,32.9,16.0,50,30.32,10.0,North,8.1,-,N/A,,Clear,350,2012-11-17 14:15:00
7:35 AM,34.9,16.2,46,30.32,10.0,North,4.6,-,N/A,,Clear,350,2012-11-17 14:35:00
7:55 AM,35.6,16.3,46,30.32,10.0,NNW,4.6,-,N/A,,Clear,330,2012-11-17 14:55:00
8:15 AM,37.2,16.7,43,30.32,10.0,Calm,Calm,-,N/A,,Clear,0,2012-11-17 15:15:00
8:35 AM,40.6,16.9,38,30.32,10.0,North,4.6,-,N/A,,Clear,350,2012-11-17 15:35:00
8:55 AM,43.2,16.9,35,30.32,10.0,North,4.6,-,N/A,,Clear,350,2012-11-17 15:55:00
9:15 AM,46.4,18.0,32,30.32,10.0,ESE,4.6,-,N/A,,Clear,120,2012-11-17 16:15:00
9:35 AM,49.8,18.5,29,30.31,10.0,SSW,13.8,21.9,N/A,,Clear,200,2012-11-17 16:35:00
10:35 AM,52.2,17.6,26,30.30,10.0,South,11.5,20.7,N/A,,Clear,180,2012-11-17 17:35:00
10:55 AM,52.2,17.6,26,30.29,10.0,South,12.7,23.0,N/A,,Clear,180,2012-11-17 17:55:00
11:15 AM,53.6,18.1,25,30.28,10.0,South,10.4,20.7,N/A,,Clear,180,2012-11-17 18:15:00
11:35 AM,54.5,18.3,24,30.27,10.0,South,11.5,20.7,N/A,,Clear,180,2012-11-17 18:35:00
12:15 PM,55.6,18.3,23,30.24,10.0,South,10.4,21.9,N/A,,Clear,180,2012-11-17 19:15:00
12:35 PM,57.2,17.8,21,30.24,10.0,South,13.8,21.9,N/A,,Clear,190,2012-11-17 19:35:00
12:55 PM,57.4,18.0,21,30.23,10.0,South,12.7,17.3,N/A,,Clear,190,2012-11-17 19:55:00
1:15 PM,57.9,17.8,21,30.22,10.0,South,9.2,17.3,N/A,,Clear,190,2012-11-17 20:15:00
1:35 PM,56.3,18.1,23,30.22,10.0,South,12.7,21.9,N/A,,Clear,180,2012-11-17 20:35:00
1:55 PM,55.6,18.5,23,30.21,10.0,South,16.1,26.5,N/A,,Clear,180,2012-11-17 20:55:00
2:15 PM,55.8,18.3,23,30.21,10.0,South,15.0,21.9,N/A,,Clear,180,2012-11-17 21:15:00
2:55 PM,55.8,18.3,23,30.20,10.0,South,13.8,20.7,N/A,,Clear,190,2012-11-17 21:55:00
3:15 PM,55.0,18.3,24,30.20,10.0,South,15.0,21.9,N/A,,Clear,190,2012-11-17 22:15:00
3:35 PM,54.1,18.7,25,30.20,10.0,South,11.5,23.0,N/A,,Clear,180,2012-11-17 22:35:00
3:55 PM,52.9,18.5,26,30.19,10.0,South,10.4,19.6,N/A,,Clear,180,2012-11-17 22:55:00
4:15 PM,52.0,18.9,27,30.20,10.0,South,9.2,19.6,N/A,,Clear,180,2012-11-17 23:15:00
4:55 PM,50.0,19.0,29,30.20,10.0,South,4.6,-,N/A,,Clear,170,2012-11-17 23:55:00
5:15 PM,49.6,18.9,30,30.20,10.0,SE,4.6,-,N/A,,Clear,130,2012-11-18 00:15:00
5:35 PM,49.1,18.7,30,30.20,10.0,Calm,Calm,-,N/A,,Clear,0,2012-11-18 00:35:00
5:55 PM,47.5,18.3,31,30.20,10.0,SE,4.6,-,N/A,,Clear,140,2012-11-18 00:55:00
6:15 PM,48.6,18.1,30,30.20,10.0,SSW,4.6,-,N/A,,Clear,200,2012-11-18 01:15:00
6:35 PM,48.4,18.0,30,30.21,10.0,SSW,3.5,-,N/A,,Clear,200,2012-11-18 01:35:00
6:55 PM,47.1,18.7,32,30.21,10.0,West,8.1,-,N/A,,Clear,260,2012-11-18 01:55:00
7:15 PM,46.2,18.5,33,30.21,10.0,South,8.1,-,N/A,,Clear,190,2012-11-18 02:15:00
7:55 PM,41.9,19.2,40,30.22,10.0,SW,5.8,-,N/A,,Clear,220,2012-11-18 02:55:00
8:15 PM,42.3,18.9,39,30.22,10.0,SW,5.8,-,N/A,,Clear,220,2012-11-18 03:15:00
8:35 PM,39.9,19.2,43,30.22,10.0,WSW,4.6,-,N/A,,Clear,250,2012-11-18 03:35:00
8:55 PM,41.5,18.9,40,30.22,10.0,WNW,4.6,-,N/A,,Clear,290,2012-11-18 03:55:00
9:15 PM,39.4,18.7,43,30.22,10.0,Calm,Calm,-,N/A,,Clear,0,2012-11-18 04:15:00
9:35 PM,40.6,18.9,42,30.23,10.0,Calm,Calm,-,N/A,,Clear,0,2012-11-18 04:35:00
9:55 PM,38.8,19.0,45,30.23,10.0,West,3.5,-,N/A,,Clear,280,2012-11-18 04:55:00
10:15 PM,43.0,20.3,40,30.23,10.0,Calm,Calm,-,N/A,,Clear,0,2012-11-18 05:15:00
10:35 PM,43.2,20.3,40,30.23,10.0,North,4.6,-,N/A,,Clear,360,2012-11-18 05:35:00
10:55 PM,41.0,20.1,43,30.24,10.0,Calm,Calm,-,N/A,,Clear,0,2012-11-18 05:55:00
11:15 PM,42.8,20.7,41,30.24,10.0,Calm,Calm,-,N/A,,Clear,0,2012-11-18 06:15:00
11:35 PM,40.6,20.1,44,30.24,10.0,WNW,3.5,-,N/A,,Clear,300,2012-11-18 06:35:00
11:55 PM,38.1,20.7,49,30.24,10.0,Calm,Calm,-,N/A,,Clear,0,2012-11-18 06:55:00